Terug naar catalogus

FENGYUN 1C DEB

ActiefSSO
NORAD 31253·DEBRIS·🇨🇳 China

Gelanceerd May 10, 1999 vanaf Taiyuan Satellite Launch Center

Loading…

Volgende Passages (komende 24 uur)

TLE

VersSource: Space-Track

Epoch: Sep 13, 2026, 03:42 UTC

1 31253U 99025BMK 26256.15446492  .00000090  00000-0  59457-4 0  9998
2 31253  99.0452 325.6168 0289623  48.1534 314.3969 14.03897471728489

Volg FENGYUN 1C DEB in realtime met AllMySat

Download on the App Store